Lapse_Rate
3.9 3.9 3.7 3.6 3.8 4.1 4.9 5.7 6.9 6.6 8.6 9.3 9.3 9.3 9.4 9.4 7.9 5.0 4.8 6.7 7.1 8.8 9.3 8.2 7.2 7.7 7.8 6.5 7.3 6.1 6.5 6.5 6.5 6.5 6.5 5.7 6.5 5.0 5.2 5.6 5.5 4.6 4.9 4.2 5.7
3.4 3.3 3.4 3.2 3.3 3.7 4.3 5.0 5.7 6.6 8.5 9.2 9.3 9.4 9.3 8.3 4.9 4.3 7.2 9.2 9.6 9.5 7.7 7.4 6.8 6.9 6.2 6.8 6.0 6.5 6.5 6.5 6.5 6.5 6.5 6.3 6.2 5.3 6.0 6.0 5.9 4.0 3.9 4.1 5.4
3.3 3.0 2.9 3.1 3.2 3.2 4.1 4.8 5.5 6.5 8.6 8.7 9.3 9.3 7.8 6.7 5.0 6.8 9.4 9.7 9.7 7.8 7.2 6.7 6.8 7.1 6.5 6.4 6.1 6.3 6.5 6.5 6.5 5.9 5.9 6.5 6.3 5.2 6.4 6.5 6.2 6.1 4.1 3.9 5.9
3.1 2.8 2.8 2.8 2.8 3.2 4.0 4.9 5.7 7.1 8.7 7.3 7.5 8.4 7.0 5.1 6.5 6.9 8.5 9.2 8.9 7.4 6.7 6.4 6.6 6.9 6.5 6.5 6.4 6.5 6.4 6.5 6.7 6.5 5.7 6.5 6.0 6.5 6.1 6.3 6.1 5.1 4.4 3.3 5.7
2.8 2.7 2.5 2.2 2.5 3.0 3.9 5.0 5.7 6.4 7.0 7.1 7.5 7.0 4.9 4.2 4.9 6.6 7.6 6.5 5.9 6.4 6.3 6.3 6.0 6.9 6.5 6.6 6.5 6.5 6.5 6.4 6.2 6.2 6.2 6.0 6.4 6.6 6.7 6.4 5.7 5.4 4.7 4.4 4.1
2.7 2.5 2.3 1.9 2.1 3.0 4.0 5.0 5.9 6.4 6.7 7.1 7.4 6.2 4.7 6.2 6.8 6.3 5.1 4.6 6.3 6.2 6.4 6.5 6.7 6.4 6.9 6.6 6.5 6.7 6.6 6.5 6.7 6.4 6.1 6.3 6.4 6.6 6.8 7.0 6.5 5.0 4.7 4.3 2.3
2.7 2.3 2.1 2.2 2.4 3.1 4.0 5.1 6.0 6.4 6.9 7.6 7.0 5.9 4.6 5.4 6.0 5.1 4.7 5.7 6.2 6.4 6.2 6.7 6.5 6.7 6.4 6.5 7.2 6.8 6.5 6.5 6.5 6.4 6.5 6.3 6.5 6.5 6.5 6.6 7.2 6.6 5.7 4.4 2.7
2.6 2.4 2.1 2.5 3.1 3.6 4.1 4.9 5.4 6.3 6.6 7.4 7.1 5.3 4.7 6.0 6.7 4.8 5.1 5.6 6.6 6.3 6.4 6.2 6.9 6.8 6.8 7.1 6.8 6.5 6.5 6.5 6.5 6.5 6.5 6.4 6.5 6.5 6.7 6.5 6.9 7.0 6.2 5.3 4.0
2.5 2.5 2.3 3.0 3.8 4.4 4.1 4.6 5.0 5.6 6.6 7.3 5.4 5.5 6.1 6.7 6.0 5.2 5.3 5.9 5.7 5.7 6.2 8.3 6.9 6.1 6.1 6.5 6.5 6.5 6.5 6.5 6.5 6.5 6.5 6.5 6.5 6.5 6.8 6.9 6.8 7.0 6.5 6.1 5.2
2.2 2.5 2.5 3.4 4.4 5.0 4.4 3.8 4.5 4.9 5.0 6.8 5.4 5.6 5.7 5.9 5.3 5.4 5.6 6.3 6.8 5.8 6.2 5.7 5.1 6.5 6.5 6.5 6.5 6.5 6.5 6.5 6.5 6.5 6.5 6.5 6.5 6.5 6.7 6.7 6.8 6.9 6.6 6.1 5.8
2.1 2.3 2.7 3.7 4.8 5.2 3.6 0.2 0.9 2.9 2.0 5.1 4.7 5.0 5.3 5.0 5.1 6.5 6.2 5.2 6.1 5.4 6.5 6.3 6.5 6.5 6.5 6.5 6.5 6.5 6.5 6.5 6.5 6.5 6.5 6.5 6.5 6.5 6.5 6.6 6.6 6.6 6.6 6.2 6.1
2.2 2.3 3.0 3.9 4.6 5.1 2.9 3.7 5.4 4.9 4.7 3.8 3.8 3.8 4.6 4.9 5.7 6.0 5.8 5.9 6.0 6.5 6.5 6.5 6.5 6.5 6.5 6.5 6.5 6.5 6.5 6.5 6.5 6.5 6.5 6.5 6.5 6.5 6.5 6.5 6.7 6.6 6.8 6.4 6.2
2.1 2.5 3.4 4.2 4.4 2.6 4.0 5.1 5.2 5.4 5.8 4.3 5.3 5.6 5.7 6.1 5.8 5.8 6.0 5.8 6.5 6.5 6.5 6.5 6.5 6.5 6.5 6.5 6.5 6.5 6.5 6.5 6.5 6.5 6.5 6.5 6.5 6.5 6.5 6.3 6.6 6.5 6.3 5.9 6.2
2.3 2.7 3.6 4.3 4.1 3.0 4.6 4.7 4.8 5.0 6.5 6.5 6.2 6.3 6.5 5.3 6.3 6.4 6.2 6.5 6.4 6.5 6.5 6.5 6.5 6.5 6.5 6.5 6.5 6.5 6.5 6.5 6.5 6.5 6.5 6.5 6.5 6.5 6.5 6.5 6.5 6.6 6.4 6.1 5.7
2.4 3.2 4.1 3.7 2.9 3.7 4.7 4.1 5.0 3.8 6.5 6.5 6.2 6.8 5.6 6.1 5.9 6.2 6.1 5.9 6.5 6.5 6.5 6.5 6.5 6.5 6.5 6.5 6.5 6.5 6.5 6.5 6.5 6.5 6.5 6.5 6.5 6.5 6.5 6.5 6.5 6.5 6.2 5.3 6.3
2.6 3.9 4.7 2.0 1.2 3.7 2.9 4.0 3.6 6.5 6.5 6.5 6.2 6.4 6.5 5.7 5.9 6.1 5.6 6.0 6.4 6.5 6.5 6.5 5.9 6.5 6.5 6.5 6.5 6.5 6.5 6.5 6.5 6.5 6.5 6.5 6.5 6.5 6.5 6.5 6.5 6.5 6.6 5.8 6.0
2.6 4.2 3.6 3.1 2.0 2.8 2.2 2.6 6.5 6.5 6.5 6.5 6.5 6.5 6.5 6.5 6.5 6.5 6.5 6.5 6.5 6.5 6.5 6.5 6.5 6.5 6.5 6.5 6.5 6.5 6.5 6.5 6.5 6.5 6.5 6.5 6.5 6.5 6.5 6.5 6.5 6.5 6.5 5.8 6.0
2.0 3.2 2.7 2.4 1.9 1.5 1.1 5.8 6.5 6.5 6.5 6.5 6.5 6.5 6.5 6.5 6.5 6.5 6.5 6.5 6.5 6.5 6.5 6.5 6.5 6.5 6.5 6.5 6.5 6.5 6.5 6.5 6.5 6.5 6.5 6.5 6.5 6.5 6.5 6.5 6.3 6.6 6.7 5.4 5.9
1.2 0.3 1.2 2.2 1.1 0.6 0.3 6.5 6.5 6.5 6.5 6.5 6.5 6.5 6.5 6.5 6.5 6.5 6.5 6.5 6.5 6.5 6.5 6.5 6.5 6.5 6.5 6.5 6.5 6.5 6.5 6.5 6.5 6.5 6.5 6.5 6.5 6.5 6.5 6.5 6.5 6.2 6.4 6.6 6.3
-0.9 1.0 2.1 1.3 1.1 0.0 5.1 6.5 6.5 6.5 6.4 6.5 6.5 6.5 6.5 6.5 6.5 6.5 6.5 6.5 6.5 6.5 5.6 6.5 6.5 6.5 6.5 6.4 6.5 6.5 6.5 6.5 6.5 6.5 6.5 6.5 6.5 6.5 6.5 6.5 6.5 6.5 6.6 6.3 6.9
-1.2 1.9 2.7 0.5 0.3 0.7 6.5 6.5 6.5 6.3 6.1 6.5 6.5 6.5 6.5 6.5 6.5 6.5 6.5 6.5 6.5 6.5 6.3 6.5 6.5 6.5 6.5 6.5 6.5 6.5 6.5 6.5 6.5 6.5 6.5 6.5 6.5 6.5 6.5 6.5 6.5 6.5 6.7 5.6 6.5
-0.9 4.8 1.8 -0.0 2.7 1.3 6.5 6.5 6.9 6.5 6.0 6.4 6.5 6.5 6.5 6.5 6.5 6.5 6.5 6.5 6.3 6.2 6.5 6.5 6.5 6.5 6.5 6.5 6.5 6.5 6.5 6.5 6.5 6.5 6.5 6.5 6.5 6.5 6.5 6.5 6.7 6.6 6.8 5.1 6.3
0.1 1.4 1.6 0.7 6.5 6.5 6.3 6.5 6.6 6.5 6.5 6.5 6.5 6.5 6.5 6.5 6.5 6.5 6.5 6.4 6.4 6.5 6.5 6.5 6.5 6.5 6.5 6.5 6.5 6.5 6.5 6.5 6.5 6.5 6.5 6.5 6.5 6.5 6.4 6.5 6.9 6.8 6.9 5.2 6.3
-0.5 6.5 1.8 0.4 0.9 6.0 6.5 6.5 6.5 6.5 6.5 6.5 6.5 6.5 6.5 6.5 6.5 6.5 6.5 6.5 6.5 6.7 7.1 6.4 6.5 6.5 6.5 6.5 6.5 6.5 6.5 6.5 6.5 6.5 6.5 6.5 6.5 6.5 6.5 6.5 6.7 7.1 7.2 6.5 6.2
-0.2 4.5 5.2 6.5 5.5 5.2 5.2 6.5 6.5 6.5 6.4 6.3 6.5 6.5 6.5 6.5 6.5 6.5 6.5 6.5 6.5 6.9 6.5 6.5 6.5 6.5 6.5 6.5 6.5 6.5 6.5 6.5 6.5 6.5 6.5 6.5 6.5 6.5 6.5 6.5 6.7 7.2 7.2 7.2 6.5
1.3 3.1 2.2 3.5 5.7 5.1 6.2 6.5 6.5 6.5 6.5 6.5 6.5 6.5 6.5 6.5 6.5 6.5 6.5 6.5 6.5 6.4 6.5 6.4 6.5 6.5 6.5 6.5 6.5 6.5 6.5 6.5 6.5 6.5 6.5 6.5 6.5 6.5 6.7 6.7 6.9 6.9 7.1 7.3 7.2
0.4 2.0 1.9 5.4 5.0 6.4 6.5 6.5 6.5 5.5 6.0 6.3 6.4 6.5 6.5 6.5 5.8 6.2 6.7 6.7 6.5 6.5 6.5 6.5 6.5 6.5 6.5 6.5 6.5 6.5 6.5 6.5 6.5 6.5 6.5 6.5 6.5 6.5 6.5 6.6 6.9 7.0 6.8 7.1 7.0
Wind_Speed
19 19 19 21 22 22 22 23 23 23 22 23 23 22 21 20 18 4 4 6 5 5 10 7 6 8 3 3 3 1 6 4 7 10 7 5 8 5 3 3 2 2 2 6 13
18 20 21 22 23 23 24 24 23 22 22 22 21 19 20 16 5 5 7 15 11 7 3 7 11 5 4 3 3 5 6 12 3 8 4 4 5 7 5 5 3 5 11 7 15
19 20 22 23 23 24 24 24 23 22 22 21 18 17 16 10 4 4 12 16 19 13 4 3 6 3 5 5 4 4 10 6 12 7 6 6 10 2 1 3 3 3 11 11 18
19 21 22 24 25 25 25 24 22 22 21 20 15 14 11 3 3 4 16 17 18 11 5 5 6 6 5 6 10 6 8 15 9 8 4 7 3 4 5 3 3 5 8 8 21
21 22 23 25 26 26 26 24 23 23 20 14 10 9 4 5 5 8 16 19 13 5 5 4 4 5 6 7 10 9 4 6 9 15 8 8 10 1 6 6 7 7 11 6 10
21 23 25 26 27 27 27 25 25 23 15 8 4 4 4 5 4 9 13 9 3 2 4 3 2 4 5 4 6 3 4 10 11 8 6 10 6 3 5 9 8 8 11 7 6
21 23 24 26 27 28 29 27 24 18 10 3 5 3 3 5 5 16 9 4 3 1 3 2 1 2 1 5 11 3 5 7 6 6 4 3 4 8 4 7 13 7 8 9 8
22 23 24 25 24 25 30 29 18 10 10 2 4 3 3 5 17 8 6 7 2 3 2 3 2 1 2 4 4 1 3 3 4 7 6 5 4 7 9 5 14 6 5 7 7
21 23 23 22 21 21 32 24 13 8 6 7 5 2 4 12 12 9 3 6 4 3 4 2 2 1 4 4 4 5 4 4 6 5 5 5 2 3 8 9 13 5 3 6 5
21 23 22 20 18 16 33 11 8 6 8 2 2 3 8 10 7 9 6 4 2 3 4 6 4 3 3 2 1 1 3 3 4 5 4 5 2 5 8 7 16 2 1 4 7
21 23 22 19 14 13 16 4 6 6 9 3 6 3 7 10 5 8 6 8 3 5 4 3 3 3 4 1 2 2 4 5 3 3 2 6 6 9 7 5 8 6 3 4 6
22 23 21 20 6 10 8 5 4 4 4 3 5 5 8 3 5 9 9 6 5 4 5 5 2 5 3 0 3 1 2 4 6 3 3 2 8 6 11 10 5 12 9 6 3
22 22 21 21 1 5 4 4 3 5 3 6 5 4 8 5 5 9 12 7 4 6 5 2 5 9 3 0 4 2 2 2 3 8 2 3 3 5 6 7 13 11 7 6 6
22 19 17 18 5 4 2 6 4 4 5 8 7 6 9 7 4 7 6 3 5 6 6 3 5 6 6 3 3 1 3 2 2 3 2 3 2 3 5 9 12 12 11 9 5
22 17 13 11 1 2 5 11 3 4 5 15 8 5 10 8 7 7 8 6 4 6 4 5 7 7 4 3 1 3 4 4 3 3 4 2 2 3 6 8 11 12 7 4 10
20 13 11 4 2 0 13 1 4 6 3 8 6 8 10 8 8 8 8 8 2 4 4 4 5 3 3 7 3 3 3 3 3 3 3 4 2 3 1 4 6 8 10 10 8
18 7 7 3 4 16 5 3 5 7 5 9 6 8 6 9 7 8 5 11 7 8 8 8 6 4 3 5 5 5 3 2 3 1 4 3 3 2 9 8 8 14 13 10 11
14 4 4 5 14 3 3 6 10 5 3 4 6 8 5 9 6 8 6 5 6 5 2 4 8 7 11 3 3 4 3 4 5 3 2 1 3 0 5 10 7 15 17 14 11
5 3 3 11 13 2 5 7 6 3 5 6 7 5 6 5 2 7 7 3 3 4 3 5 5 5 4 4 2 4 2 2 5 2 3 1 3 2 16 18 18 3 8 13 10
2 2 4 23 11 5 6 5 2 1 5 3 4 4 5 6 8 5 3 2 6 5 3 3 6 3 6 5 1 2 1 2 2 2 2 1 1 4 14 15 16 13 9 5 9
3 3 3 19 4 6 4 2 2 4 4 4 3 3 3 3 3 3 4 3 4 7 2 1 1 6 4 5 4 5 4 3 1 2 3 3 3 4 6 8 11 12 10 8 7
3 3 4 5 4 2 2 2 4 3 4 4 2 3 2 4 4 3 3 4 4 8 3 2 2 4 4 7 8 3 4 2 1 5 1 2 1 5 6 8 9 10 11 7 7
3 1 3 4 4 3 3 2 0 4 3 3 4 3 3 3 4 3 4 4 6 8 4 3 2 5 7 3 4 4 5 8 4 2 2 3 2 6 8 12 12 13 15 12 6
3 3 4 5 1 5 2 3 4 4 2 2 1 3 6 3 2 5 5 4 13 4 6 3 2 4 2 6 4 5 6 6 5 2 3 1 1 13 16 16 16 17 18 18 1
3 0 2 2 4 4 3 2 4 5 3 3 2 4 3 2 4 3 3 6 5 5 4 3 2 2 9 10 11 6 5 5 2 5 2 4 4 7 10 12 13 15 18 18 17
3 3 3 2 2 4 5 2 3 4 2 4 1 7 3 4 6 6 2 2 4 5 5 4 3 4 3 3 8 8 16 9 7 9 3 4 3 9 5 8 16 17 17 16 16
1 1 4 3 2 4 3 3 1 2 4 5 3 3 4 8 7 12 11 11 10 5 3 3 3 4 4 4 4 4 9 9 4 9 6 5 6 11 7 11 16 15 14 15 15
Wind_Direction
2 358 355 353 351 348 344 343 340 337 335 332 331 334 335 331 333 345 293 244 294 286 329 318 323 321 321 241 230 216 248 230 213 214 247 178 211 190 223 252 261 275 302 266 154
1 356 354 351 349 348 344 340 338 337 335 333 335 338 338 343 349 319 275 314 338 3 345 327 314 339 318 263 243 199 233 255 224 230 224 255 186 196 163 187 279 350 334 193 164
360 356 350 349 347 344 341 339 337 336 336 336 337 339 342 351 3 298 339 348 352 9 350 305 293 296 238 218 215 214 248 290 276 253 256 265 257 356 227 180 76 318 305 287 169
359 355 351 348 345 343 338 336 336 334 334 331 333 343 350 33 48 281 330 339 335 336 348 337 337 331 273 251 215 263 232 246 272 278 265 238 257 253 218 133 51 295 290 256 175
358 355 350 347 343 341 335 334 335 334 333 331 331 356 34 20 263 276 321 329 318 344 329 333 20 354 301 321 287 222 274 296 254 251 272 257 222 39 276 353 359 346 356 253 221
356 353 350 347 342 339 334 336 338 340 341 341 10 66 66 24 266 303 318 319 298 331 304 333 310 190 274 295 283 4 295 269 263 271 277 232 222 163 22 358 355 4 349 319 239
354 352 350 347 344 339 334 339 341 346 2 355 110 81 74 239 310 319 312 286 285 255 298 279 348 340 334 316 332 324 340 310 241 213 244 272 282 219 155 357 316 331 348 346 332
352 350 351 349 346 339 332 339 347 348 348 40 100 59 266 271 306 317 311 326 6 24 254 360 311 271 260 292 287 147 163 278 262 183 206 172 276 206 146 250 285 297 352 352 343
352 349 351 351 348 343 329 345 6 17 15 124 41 52 1 329 352 319 310 313 324 340 357 24 24 357 331 335 356 35 301 228 312 223 149 166 255 133 145 149 260 267 20 356 6
350 348 350 352 349 348 329 353 16 37 7 51 80 32 333 322 317 318 313 317 312 330 351 18 13 5 18 355 245 23 296 288 186 1 177 173 225 157 182 160 254 196 141 19 358
350 348 350 352 349 358 342 15 18 359 36 69 297 268 285 301 303 337 335 342 8 47 12 354 351 299 278 125 312 293 346 328 335 2 8 198 215 175 185 115 278 241 165 179 341
350 347 347 351 2 22 356 68 112 182 332 315 275 271 267 272 308 336 358 27 23 352 347 7 304 301 301 124 350 168 305 313 298 345 346 356 225 199 166 161 263 220 186 172 52
350 347 346 349 103 36 68 44 315 128 84 309 277 299 322 348 336 329 5 330 27 3 346 271 278 316 234 105 346 234 192 260 301 346 294 324 294 184 166 160 194 220 202 158 141
349 347 350 350 52 331 38 329 60 114 71 336 343 353 350 315 360 339 343 343 357 344 340 275 303 340 336 239 156 273 253 209 264 43 309 354 245 226 171 178 186 176 184 170 140
347 346 357 35 247 55 302 315 123 54 43 325 326 304 324 50 289 327 327 357 30 315 26 294 333 344 332 357 260 260 22 201 210 126 11 299 68 260 173 194 182 177 168 141 184
346 351 357 35 40 288 319 185 50 42 293 330 348 337 356 0 334 317 8 9 44 7 352 280 288 306 293 306 264 102 3 64 90 76 7 259 145 301 282 242 171 160 166 180 157
341 358 35 55 302 317 315 35 38 83 339 333 331 334 329 351 330 4 358 30 44 14 359 328 324 313 349 338 8 49 55 61 41 67 214 310 32 308 322 333 180 176 177 170 163
340 36 28 96 335 305 50 50 67 265 322 310 318 321 11 12 346 336 3 24 35 67 23 16 333 13 340 11 297 343 19 143 163 174 177 111 225 257 324 348 322 190 177 177 175
351 356 29 344 352 78 70 49 182 234 310 307 326 19 341 1 348 3 3 358 40 46 74 10 286 325 272 333 322 297 1 39 107 225 64 7 335 235 1 3 8 37 168 185 174
65 39 348 342 359 58 68 135 143 279 312 337 32 46 338 325 354 37 347 327 334 37 159 253 294 282 302 320 233 294 307 325 25 122 58 10 62 333 348 340 346 353 352 217 179
59 49 273 349 43 50 94 203 16 359 2 14 343 329 346 303 281 302 272 328 344 329 346 210 154 293 327 23 11 349 2 358 27 125 146 150 103 11 319 325 332 321 314 299 199
82 38 329 7 48 27 69 22 13 332 349 23 62 69 43 302 290 305 292 221 48 338 346 277 199 293 283 287 291 304 323 27 314 311 274 141 349 33 334 349 350 326 325 300 177
82 300 339 59 85 8 325 27 332 4 13 29 27 22 62 291 332 263 318 295 13 343 2 308 315 323 348 13 29 17 351 8 299 288 254 115 267 35 3 8 2 358 359 357 148
82 33 349 40 74 110 93 340 333 347 134 2 81 42 5 331 276 304 308 303 331 321 354 5 253 206 243 272 305 309 310 342 307 355 337 177 31 358 3 360 350 6 8 9 321
39 157 185 351 6 72 68 299 347 4 10 2 50 43 358 310 312 268 286 304 316 355 8 76 270 194 271 278 274 253 333 315 280 315 347 37 79 6 1 353 0 10 10 12 14
112 127 17 91 76 60 357 302 350 327 333 324 96 314 272 204 195 265 336 246 263 333 8 343 287 340 301 321 66 52 21 15 25 354 12 96 87 3 346 352 24 16 6 3 3
124 58 103 328 69 78 242 238 288 107 293 257 299 306 291 253 251 264 265 256 257 309 304 13 347 353 280 323 314 33 360 6 69 21 329 16 339 336 331 353 26 8 359 350 352